Home > Weather > Muyinga > Past weeks

Flag for Burundi Past Weather in Muyinga, Burundi — Yesterday and Last 2 Weeks

Now
70 °F

Clear.


Feels Like: 70 °F
Forecast: 51 / 75 °F
Wind: 5 mph from South

Location: Kigali Airport

Current Time: Jun 29, 2016 at 10:11:25 PM

Latest Report: Jun 29, 2016 at 9:30 PM


Visibility: 10 mi

Pressure: 30.21 "Hg (24.66 "Hg at 1749m altitude)

Humidity: 46%

Dew Point: 48 °F

Location of MuyingaLocation

Past Weather in Muyinga — Graph

°F

Muyinga Temperature Yesterday

Maximum temperature yesterday: 81 °F (at 1:00 PM)
Minimum temperature yesterday: 59 °F (at 6:00 AM)
Average temperature yesterday: 66 °F

High & Low Weather Summary for the Past Weeks

 TemperatureHumidityPressure
High81 °F (Jun 16, 2:00 PM)83% (Jun 16, 7:00 AM)30.33 "Hg (Jun 16, 7:00 AM)
Low59 °F (Jun 28, 6:00 AM)28% (Jun 29, 1:30 PM)30.07 "Hg (Jun 20, 4:00 PM)
Average71 °F56%30.19 "Hg
* Reported Jun 15 8:00 AM — Jun 29 8:30 PM, Muyinga, Weather by CustomWeather, © 2016

Note: Actual official high and low records may vary slightly from our data, if they occured in-between our weather recording intervals... More about our weather records

Advertising

Muyinga Weather History for the Previous 24 Hours

Scroll right to see more
 ConditionsComfort  
Time TempWeatherWind HumidityBarometerVisibility
8:30 PM
Wed, Jun 29
72 °FClear.3 mph38%30.18 "Hg10 mi
7:30 PM73 °FClear.3 mph33%30.15 "Hg10 mi
7:00 PM77 °FClear.3 mph30%30.15 "Hg10 mi
5:30 PM79 °FPassing clouds.5 mph30%30.12 "HgN/A
5:00 PM79 °FPassing clouds.5 mph30%30.12 "HgN/A
4:30 PM81 °FPassing clouds.7 mph28%30.12 "HgN/A
4:00 PM81 °FPassing clouds.7 mph28%30.12 "HgN/A
3:30 PM81 °FPassing clouds.8 mph28%30.12 "HgN/A
3:00 PM81 °FPassing clouds.7 mph30%30.15 "HgN/A
2:30 PM81 °FSunny.6 mph30%30.15 "Hg10 mi
1:30 PM79 °FPassing clouds.8 mph28%30.18 "HgN/A
1:00 PM79 °FPassing clouds.8 mph30%30.21 "HgN/A
11:30 AM77 °FSunny.9 mph36%30.24 "Hg10 mi
11:00 AM73 °FPassing clouds.8 mph38%30.27 "HgN/A
10:30 AM73 °FPassing clouds.9 mph44%30.27 "HgN/A
9:30 AM72 °FPassing clouds.7 mph44%30.27 "HgN/A
9:00 AM70 °FPassing clouds.3 mph46%30.30 "HgN/A
8:00 AM63 °FPassing clouds.3 mph64%30.27 "HgN/A
7:30 AM63 °FPassing clouds.2 mph64%30.27 "HgN/A
Weather by CustomWeather, © 2016

See weather overviewHow to use our weather pages